Regional Weather Roundup
Issued by NWS Midland/Odessa, TX

Skip options and go directly to product.
Home | Oldest Version | Previous Version | Current Version | All | Text Only | Save Text | Print | Product List | Glossary Off

Skip product version selection by date and time.   

354
ASUS44 KMAF 240410
RWRMAF
MIDLAND AREA WEATHER ROUNDUP
NATIONAL WEATHER SERVICE MIDLAND TX
1000 PM CST SUN NOV 23 2014

...IN SOUTHWEST TEXAS AND SOUTHEAST NEW MEXICO...

CITY           SKY/WX    TMP DP  RH WIND       PRES   REMARKS
ALPINE         CLEAR     53  24  31 N20G26    30.06R
ANDREWS        CLOUDY    41  27  58 NW6       29.97R WCI  37
ARTESIA        NOT AVBL
BIG SPRING     CLOUDY    46  30  54 N7        29.96R
CARLSBAD       MOCLDY    41  29  62 NW10      30.01R WCI  35
DRYDEN           N/A     63  26  24 N20G33    29.87R
FORT STOCKTON  CLEAR     46  30  53 N8        30.00R
GUAD PASS      PTCLDY    36  27  69 E21       30.01R WCI  25
HOBBS          PTCLDY    34  28  80 NW9       29.98R WCI  26
MARFA          CLEAR     50  19  29 NW12      30.01R
MIDLAND AIRPK  MOCLDY    46  31  55 NW5       29.96R
MIDLAND INTL   CLOUDY    45  28  51 N8        29.95R
ODESSA         CLOUDY    44  27  51 N8        29.96R WCI  39
PECOS          CLEAR     47  29  51 N9        30.01R
PRESIDIO       FAIR      61  29  29 NW8       29.92R
SEMINOLE       MOCLDY    37  27  67 CALM      29.96R
SNYDER         MOCLDY    43  33  69 N10       29.91S WCI  37
WINK           PTCLDY    45  26  47 NE7       29.98R
$$
...OTHER STATIONS IN TEXAS...

CITY           SKY/WX    TMP DP  RH WIND       PRES   REMARKS
ABILENE        PTCLDY    47  35  63 NW15      29.89R
AMARILLO       CLEAR     33  29  85 W8        29.91R WCI  26
AUSTIN         CLEAR     64  41  42 N16G23    29.75R
BROWNSVILLE    FOG       64  63  96 CALM      29.73R VSB 1/4
CORPUS CHRISTI CLEAR     64  62  93 S5        29.72R
DALLAS FTW     PTCLDY    50  39  66 NW22G32   29.77R
DEL RIO        CLEAR     64  36  35 NW12      29.77R
EL PASO        MOCLDY    51   2  13 N18       30.02R
HOUSTON INT    CLEAR     67  57  70 S6        29.67R
LUBBOCK        CLEAR     36  27  69 NW10      29.92R WCI  28
SAN ANGELO     PTCLDY    52  34  50 N22       29.92R
SAN ANTONIO    PTCLDY    59  47  64 W5        29.73R
WACO           CLEAR     56  39  53 NW17G24   29.79R
WICHITA FALLS  NOT AVBL
$$
...OTHER LOCATIONS IN NEW MEXICO...

CITY           SKY/WX    TMP DP  RH WIND       PRES   REMARKS
ALAMAGORDO     MOCLDY    45   1  16 MISG      30.05R
ALBUQUERQUE    PTCLDY    39   7  26 NW15G28   30.05R WCI  31
CANNON AFB     PTCLDY    33  29  84 NW12      29.94R WCI  24
CLOVIS         PTCLDY    32  27  80 NW12      29.93R WCI  23
HOLLOMAN AFB   MOCLDY    38   3  23 N10       30.04R WCI  31
ROSWELL        CLEAR     33  28  81 SW3       30.01R
RUIDOSO        CLEAR     32   5  32 NW14G26   30.03S WCI  22
SANTA FE       CLOUDY    29   6  38 W9        29.97R WCI  20
TRUTH OR CONSE CLEAR     44  -1  15 NW17G25   30.06R WCI  36
TUCUMCARI        N/A     34  31  88 W13       29.94R WCI  25
$$

USA.gov is the U.S. government's official web portal to all federal, state and local government web resources and services.